Location: Azul
(36.7830°S, 59.8500°W)
Time: 00:19:09
(UTC-03:00)

CUBEBUG 2 - Pass Details

Date: 27 October 2021
Orbit: 584 x 697 km, 97.7° (Epoch: 30 November)

Event Time Altitude Azimuth Distance (km) Brightness Sun altitude
Exits shadow 04:43:25 19° 262° (W) 1,487 ? -14.9°
Drops below altitude 10° 04:45:56 10° 227° (SW) 1,995 ? -14.4°
Sets 04:48:44 0° 209° (SSW) 2,932 ? -13.9°
